User: anonymous   Login
Location: Unspecified
(0.0000°N, 0.0000°E)
Time: 01:56:23
(UTC+00:00)
Language:

Aussat K2 - Orbit

View from above orbital plane
View from above orbital plane
View from above satellite
View from above satellite

Ground track
Ground track

The orbit data is extracted from the following two-line orbital elements,

1 16275U 85109C   16241.09517758 -.00000139  00000-0  00000+0 0  9993
2 16275  15.1311  11.6576 0007099 212.1776 142.8548  0.99954133102291
Epoch (UTC): 28 August 2016 02:17:03
Eccentricity: 0.0007099
inclination: 15.1311°
perigee height: 35845 km
apogee height: 35905 km
right ascension of ascending node: 11.6576°
argument of perigee: 212.1776°
revolutions per day: 0.99954133
mean anomaly at epoch: 142.8548°
orbit number at epoch: 10229

The dashed part of the orbit path shows where the satellite is in the earth's shadow,  

DLR